Details From LEMD - Barajas
To GOOY - Dakar Leopold Sedar Senghor Intl
Flight Number -
Tags decoded
Created
Modified
Stats Distance 1,710 nm / 3,167 km
Max Altitude 0 ft / 0 m
Waypoints 4
Social Downloads 3
Likes 1
Share VATSIM

Download

Looking for another format? Having issues loading an existing format? Contact us
Advertisement - Login to hide

Notes

Requested: LEMD 404808N0033453W 404128N0035353W 383435N0050321W TAGOR BIRVO MOGBA 180620N0160105W 142532N0170011W 141129N0170458W 140959N0172031W GOOY Unmatched points: 404808N0033453W 404128N0035353W 383435N0050321W BIRVO 180620N0160105W 142532N0170011W 141129N0170458W 140959N0172031W

Route

LEMD TAGOR MOGBA GOOY

ID Type Via Altitude Latitude Longitude Leg Dist Tot Dist Heading (true) Name
O LEMD APT - 0 ft / 0 m 40.49045˚ -3.56061˚ - 0 nm - Barajas
TAGOR FIX - 0 ft / 0 m 36.48639˚ -6.11722˚ 268 nm 268 nm 207° / 206° -
MOGBA FIX - 0 ft / 0 m 30.56278˚ -9.75917˚ 399 nm 668 nm 208° / 206° -
O GOOY APT - 0 ft / 0 m 14.73971˚ -17.49023˚ 1041 nm 1710 nm 206° / 203° Dakar Leopold Sedar Senghor Intl

Altitude Profile

Advertisement - Login to hide

Weather


0- 5 10 15 20 25 30 35+ Temperature / ° C

Clouds and Precipitation
Forecast for 2018-05-21 18:00 UTC. Updated 19 minutes ago

Ground ~20,000 ft ~40,000 ft Winds

LEMD

Details ICAO LEMD (MAD)
Name Barajas
Region Spain
Timezone Europe/Madrid (UTC+2.0)
Stats Elevation 1,998 ft / 609 m (AMSL)
Location 40.490447° -3.560614°
Runways 5
Magnetic Variation 0.634° W

METAR

LEMD 211730Z 36003KT 9999 -SHRA FEW050TCU SCT070 16/13 Q1011 NOSIG

Decode

TAF

TAF LEMD 211100Z 2112/2218 VRB05KT 9999 FEW040 TX23/2115Z TN11/2205Z TEMPO 2112/2118 20010G20KT TEMPO 2112/2121 SCT040TCU PROB40 TEMPO 2112/2121 VRB15G25KT TSRA FEW040CB

Decode

Departure Runways

ID Width Length Bearing (true) Bearing (mag) Surface Threshold Offset Overrun Length
14L 197 ft / 60 m 11,494 ft / 3,504 m 142.32° 142.95° Asphalt 0 ft / 0 m 820 ft / 250 m
14R 197 ft / 60 m 13,454 ft / 4,101 m 142.30° 142.93° Asphalt 0 ft / 0 m 427 ft / 130 m
18C 174 ft / 53 m 10,952 ft / 3,338 m 179.60° 180.23° Concrete 0 ft / 0 m 0 ft / 0 m
18L 197 ft / 60 m 11,494 ft / 3,503 m 179.76° 180.39° Asphalt 1,640 ft / 500 m 984 ft / 300 m
18R 197 ft / 60 m 14,282 ft / 4,353 m 179.76° 180.39° Asphalt 3,232 ft / 985 m 853 ft / 260 m
32L 197 ft / 60 m 13,454 ft / 4,101 m 322.32° 322.95° Asphalt 3,445 ft / 1,050 m 328 ft / 100 m
32R 197 ft / 60 m 11,494 ft / 3,504 m 322.33° 322.96° Asphalt 1,640 ft / 500 m 984 ft / 300 m
36C 174 ft / 53 m 10,952 ft / 3,338 m 359.60° 0.23° Concrete 0 ft / 0 m 0 ft / 0 m
36L 197 ft / 60 m 14,282 ft / 4,353 m 359.76° 0.39° Asphalt 0 ft / 0 m 0 ft / 0 m
36R 197 ft / 60 m 11,494 ft / 3,503 m 359.76° 0.39° Asphalt 0 ft / 0 m 295 ft / 90 m

GOOY

Details ICAO GOOY (DKR)
Name Dakar Leopold Sedar Senghor Intl
Region Senegal
Timezone Africa/Dakar (UTC+0.0)
Stats Elevation 85 ft / 26 m (AMSL)
Location 14.739711° -17.490226°
Runways 2
Magnetic Variation 7.298° W

METAR

GOOY 211700Z 36012KT 9999 FEW010 23/19 Q1012

Decode

TAF

TAF GOOY 211130Z 2112/2218 36012KT CAVOK= TAF GBYD 211130Z 2112/2218 30010KT 9999 SCT010

Decode

Destination Runways

ID Width Length Bearing (true) Bearing (mag) Surface Threshold Offset Overrun Length
03 98 ft / 30 m 4,921 ft / 1,500 m 22.31° 29.61° Asphalt 0 ft / 0 m 98 ft / 30 m
18 148 ft / 45 m 11,511 ft / 3,509 m 172.57° 179.87° Asphalt 525 ft / 160 m 197 ft / 60 m
21 98 ft / 30 m 4,921 ft / 1,500 m 202.31° 209.61° Asphalt 0 ft / 0 m 1,590 ft / 485 m
36 148 ft / 45 m 11,511 ft / 3,509 m 352.57° 359.87° Asphalt 0 ft / 0 m 197 ft / 60 m

Approach Navaids

Runway Type Ident Frequency Range Bearing (true) Bearing (mag) Slope Elevation
36 Localiser YF 110.30 MHz 18 nm / 33 km 352.33° 359.62° - 65 ft / 20 m (AMSL)
36 Glidescope YF 110.30 MHz 10 nm / 19 km 352.57° 359.87° 3.01° 73 ft / 22 m (AMSL)
36 DME YF 110.30 MHz 18 nm / 33 km - - - 73 ft / 22 m (AMSL)

Popular Alternatives